Location: Maignaut
(43.8886°N, 0.4051°E)
Time: 14:43:10
(UTC+00:00)

Cosmos 858 Rocket - Pass Details

Date: 27 February 2020
Orbit: 756 x 774 km, 74.1° (Epoch: 07 April)

Event Time Altitude Azimuth Distance (km) Brightness Sun altitude
Rises 19:18:52 0° 338° (NNW) 3,238 8.1 -17.9°
Reaches altitude 10° 19:21:15 10° 338° (NNW) 2,305 7.3 -18.4°
Maximum altitude 19:26:29 84° 252° (WSW) 770 4.5 -19.3°
Enters shadow 19:31:38 10° 164° (SSE) 2,269 6.7 -20.2°
